Flag for U.S.A. Weather past 2 weeks in Columbus, Georgia, U.S.A.

Now
79 °F

Passing clouds.


Feels Like: 82 °F
Forecast: 71 / 86 °F
Wind: No wind

Location: Columbus Metropolitan Airport

Current Time: Jul 25, 2014 at 12:16:22 AM

Latest Report: Jul 24, 2014 at 11:51 PM


Visibility: 9 mi

Pressure: 29.96 "Hg

Humidity: 79%

Dew point: 72 °F

Location of ColumbusLocation

Historic Weather in Columbus — Graph

°F

Columbus temperature yesterday

Maximum temperature yesterday: 89 °F (at 2:51 PM)
Minimum temperature yesterday: 74 °F (at 5:51 AM)
Average temperature yesterday: 82 °F

Past Weeks' High & Low Weather Summary

 TemperatureHumidityPressure
High93 °F (Jul 14, 5:51 PM)100% (Jul 13, 7:58 AM)30.18 "Hg (Jul 13, 7:58 AM)
Low65 °F (Jul 17, 5:51 AM)29% (Jul 17, 5:51 PM)29.81 "Hg (Jul 15, 5:51 PM)
Average78 °F76%30.02 "Hg
* Reported Jul 9 10:51 PM — Jul 24 10:51 PM, Columbus, Weather by CustomWeather, © 2014

Note: Actual official high and low records may vary slightly from our data, if they occured in-between our weather recording intervals... More about our weather records

Advertising

Columbus weather history for previous 24 hours

 ConditionsComfort  
Time TempWeatherWind HumidityBarometerVisibility
10:51 PM
Jul 24
81 °FClear.6 mph74%29.96 "Hg10 mi
9:51 PM83 °FPassing clouds.5 mph65%29.94 "Hg10 mi
8:51 PM84 °FSunny.5 mph61%29.93 "Hg10 mi
7:51 PM86 °FSunny.7 mph53%29.91 "Hg10 mi
6:51 PM88 °FPassing clouds.8 mph50%29.90 "Hg10 mi
5:51 PM89 °FSunny.15 mph50%29.90 "Hg10 mi
4:51 PM88 °FPassing clouds.12 mph52%29.92 "Hg10 mi
3:51 PM88 °FBroken clouds.13 mph54%29.93 "Hg10 mi
2:51 PM89 °FScattered clouds.12 mph52%29.95 "Hg10 mi
1:51 PM88 °FSunny.9 mph55%29.97 "Hg10 mi
12:51 PM85 °FScattered clouds.12 mph59%29.99 "Hg7 mi
11:51 AM84 °FBroken clouds.13 mph65%29.99 "Hg5 mi
11:00 AM82 °FScattered clouds.9 mph70%30.02 "Hg5 mi
9:51 AM80 °FSunny.9 mph76%30.00 "Hg8 mi
8:51 AM78 °FPassing clouds.5 mph82%30.00 "Hg7 mi
7:51 AM75 °FFog.5 mph90%29.98 "Hg6 mi
6:51 AM74 °FPassing clouds.No wind91%29.97 "Hg8 mi
5:51 AM74 °FPassing clouds.5 mph94%29.96 "Hg10 mi
4:51 AM75 °FPassing clouds.3 mph90%29.96 "Hg10 mi
3:51 AM76 °FPassing clouds.No wind88%29.96 "Hg10 mi
2:51 AM77 °FPassing clouds.No wind88%29.96 "Hg10 mi
1:51 AM77 °FPassing clouds.No wind88%29.98 "Hg10 mi
12:51 AM79 °FPassing clouds.No wind82%29.98 "Hg10 mi
Weather by CustomWeather, © 2014

See weather overviewHow to use our weather pages